{"data":{"norad_id":82961,"intl_designator":"","name":"UNKNOWN","alt_names":[],"object_type":"UNKNOWN","status":"UNKNOWN","operator":null,"country":null,"launch_date":null,"launch_site_code":null,"launch_vehicle":null,"mission":null,"orbit_class":"UNKNOWN","rcs_meters":null,"size_class":null,"mass_kg":null,"dimensions":null,"purposes":[],"wikipedia_slug":null,"has_3d_model":false,"image_url":null,"decayed_at":null,"tle_current":{"epoch":"2026-09-17T20:22:39.898560Z","epoch_age_seconds":247414,"freshness":"STALE","line1":"1 82961U          26260.84907290  .00003093  00000+0  46577-2 0  9996","line2":"2 82961  99.6939  45.3406 0370363  64.2415 299.6443 13.29159192592723","mean_motion":13.29159192,"eccentricity":0.0370363,"inclination_deg":99.6939,"raan_deg":45.3406,"arg_perigee_deg":64.2415,"mean_anomaly_deg":299.6443,"bstar":0.0046577,"rev_number":59272,"period_min":108.33916724702,"perigee_km":871.12436622781,"apogee_km":1428.7483321946,"semimajor_km":7528.0733492112,"source":"CELESTRAK","updated_at":"2026-09-20T09:00:32.441217Z"}}}